Regional Weather Roundup
Issued by NWS Sterling, VA

Home | Current Version | Previous Version | Text Only | Print | Product List | Glossary Off
Versions: 1 2 3 4 5 6 7 8 9 10 11 12 13 14 15 16 17 18 19 20 21 22 23 24 25 26 27 28 29 30 31 32 33 34 35 36 37 38 39 40 41 42 43 44 45 46 47 48 49 50

844
ASUS41 KLWX 102310
RWRLWX

REGIONAL WEATHER ROUNDUP
NATIONAL WEATHER SERVICE BALTIMORE MD/WASHINGTON DC
600 PM EST WED FEB 10 2016

Note: "FAIR" indicates few or no clouds below 12,000 feet
with no significant weather and/or obstructions to visibility.
 TC=TEMPERATURE CELSIUS

 * =Non NWS site. Station does not report precipitation (e.g. rain,
    snow, etc.), thunder, or fog.

DCZ001-MDZ009-015-VAZ040>042-051-053>054-110000-
WASHINGTON METRO

CITY           SKY/WX    TMP DP  RH WIND       PRES   REMARKS
WASHINGTON NAT CLOUDY    32  12  43 NW14G26   29.87R WCI  22
DULLES         CLOUDY    27  10  49 NW20G26   29.88R WCI  13
ANDREWS AFB    MOCLDY    31  13  47 NW15      29.83R WCI  20
FT BELVOIR     CLOUDY    31  13  47 NW16G24   29.87R WCI  20
QUANTICO       LGT SNOW  30  23  75 NW12G24   29.90R VSB 3/4 WCI  20
COLLEGE PARK*  CLOUDY    32   9  37 W12G23    29.86R WCI  23
LEESBURG*      CLOUDY    28  18  64 NW21G30   29.89R WCI  15
MANASSAS*      CLOUDY    28  19  69 NW17G23   29.89R WCI  16
GAITHERSBURG*  CLOUDY    27   9  46 W15G23    29.88R WCI  15

$$

MDZ006>007-011-014-110000-
BALTIMORE METRO

CITY           SKY/WX    TMP DP  RH WIND       PRES   REMARKS
BWI AIRPORT    MOCLDY    31  12  45 W17G25    29.83R WCI  19
MD SCIENCE CTR   N/A     32  11  41 MISG      29.82R
MARTIN STATE   PTCLDY    32  18  55 W16G22    29.84R WCI  21
ANNAPOLIS      MOCLDY    34  16  47 NW10      29.83R WCI  26
FORT MEADE*    CLOUDY    32  14  47 NW13G23   29.86R WCI  22

$$

MDZ012-015-019>023-110000-
MARYLAND EASTERN SHORE

CITY           SKY/WX    TMP DP  RH WIND       PRES   REMARKS
OCEAN CITY     MOCLDY    35  20  54 CALM      29.81R
SALISBURY      MOCLDY    34  21  59 NW5       29.81R
BAY BRIDGE AP*   N/A     34  14  44 NW12G17   29.83R WCI  25
CAMBRIDGE*     MOCLDY    34  19  55 NW6       29.81R
EASTON*        MOCLDY    32  19  59 N6        29.85R

$$

MDZ017>025-110000-
SOUTHERN MARYLAND

CITY           SKY/WX    TMP DP  RH WIND       PRES   REMARKS
PATUXENT RIVER CLOUDY    35  19  52 W6        29.81R
ST INIGOES     CLOUDY    37  20  50 W3        29.81R
LEONARDTOWN*   CLOUDY    36  19  51 W3        29.83R

$$

MDZ003>005-110000-
NORTH CENTRAL MARYLAND

CITY           SKY/WX    TMP DP  RH WIND       PRES   REMARKS
FREDERICK*     CLOUDY    27  16  63 W20       29.90R WCI  13
HAGERSTOWN APT CLOUDY    24  11  57 W13       29.86R WCI  12
WESTMINSTER*   CLOUDY    27  18  69 W14G20    29.81R WCI  15

$$

MDZ501>502-110000-
WESTERN MARYLAND

CITY           SKY/WX    TMP DP  RH WIND       PRES   REMARKS
OAKLAND*       CLOUDY    10   7  85 W13G21    29.72S FOG     WCI  -5
CUMBERLAND*    PTCLDY    25  12  58 SW7       29.92S

$$

VAZ025>031-110000-
SHENANDOAH VALLEY

CITY           SKY/WX    TMP DP  RH WIND       PRES   REMARKS
WINCHESTER*    CLOUDY    25  12  58 W13G23    29.88R WCI  13
FRONT ROYAL*   CLOUDY    25   9  50 W14G21    29.88R WCI  13
LURAY*         CLOUDY    23   9  54 NW5       29.88S
NEW MARKET*    CLOUDY    24   6  47 W3        29.88R
STAUNTON*      MOCLDY    27   7  41 W6        29.89R
WAYNESBORO*    CLOUDY    23   3  42 W3        29.85S

$$

WVZ021-048>050-054>055-110000-
EASTERN WEST VIRGINIA PANHANDLE

CITY           SKY/WX    TMP DP  RH WIND       PRES   REMARKS
MARTINSBURG    CLOUDY    24  11  57 W15       29.88R WCI  11
PETERSBURG*    CLOUDY    23   7  49 CALM      29.91R

$$

VAZ036>039-050-110000-
CENTRAL FOOTHILLS

CITY           SKY/WX    TMP DP  RH WIND       PRES   REMARKS
CHARLOTTESVILL CLOUDY    28   6  39 NW10G22   29.88R WCI  19
CULPEPER*      CLOUDY    29   9  43 NW12G18   29.89R WCI  19
ORANGE*        CLOUDY    32   9  37 W12       29.89R WCI  23
GORDONSVILLE*  CLOUDY    30   7  37 NW14G24   29.87R WCI  19
WARRENTON*     FLURRIES  29  20  69 NW15G22   29.88R WCI  18

$$

VAZ055>057-110000-
NORTH AND CENTRAL PIEDMONT

CITY           SKY/WX    TMP DP  RH WIND       PRES   REMARKS
FREDERICKSBRG* CLOUDY    33  19  56 NW14G22   29.86R WCI  24
STAFFORD*      CLOUDY    32  16  52 W15       29.91R WCI  21

$$

NCZ024-NYZ072-PAZ021-071-VAZ022-071-110000-
OTHER REGIONAL OBSERVATIONS

CITY           SKY/WX    TMP DP  RH WIND       PRES   REMARKS
NEW YORK CITY  CLOUDY    36  17  46 W8G23     29.71R
PHILADELPHIA   MOCLDY    33  14  45 W14       29.80R WCI  23
PITTSBURGH     LGT SNOW  20  13  74 SW14      29.84R WCI   7
ROANOKE        MOCLDY    23   4  44 W12G21    29.94R WCI  12
RICHMOND       MOCLDY    35  13  40 W20G25    29.86R WCI  24
RALEIGH        MOCLDY    35  11  36 W10G22    29.94R WCI  27

$$

ANZ530>537-110000-
MARINE OBSERVATIONS

STATION/POSITION TIME  TEMP    WIND        PRES
                       AIR SEA DIR/SP/G
                 (UTC) (F)     (DEG/KT/KT) (MB)
THOMAS PT LIGHT  NOT AVBL
BALT KEY BRIDGE  2200   33     290/ 14/ 17   N/A
COVE POINT       2200   36     330/  8/ 11   N/A
LEWISETTA        2200   38 41  290/  6/  8   N/A
SOLOMONS ISLAND  2200   38 41  280/  5/  6   N/A
PINEY POINT      2200          340/  8/  9   N/A

$$





USA.gov is the U.S. government's official web portal to all federal, state and local government web resources and services.